User: anonymous   Login
Location: Unspecified
(0.0000°N, 0.0000°E)
Time: 09:12:36
(UTC+00:00)
Language:

DOUBLE STAR - Orbit

View from above orbital plane
View from above orbital plane
View from above satellite
View from above satellite

Ground track
Ground track

The orbit data is extracted from the following two-line orbital elements,

1 28382U 04029A   18017.78015519  .00000172  00000-0  11302-3 0  9991
2 28382  87.6411 293.5887 7123237  56.5418 352.3026  2.29778557106435
Epoch (UTC): 17 January 2018 18:43:25
Eccentricity: 0.7123237
inclination: 87.6411°
perigee height: 600 km
apogee height: 35160 km
right ascension of ascending node: 293.5887°
argument of perigee: 56.5418°
revolutions per day: 2.29778557
mean anomaly at epoch: 352.3026°
orbit number at epoch: 10643

The dashed part of the orbit path shows where the satellite is in the earth's shadow,  

DLR